, AK

(GMT )
Deadhorse

Weather History for PASC - May, 2013

Change the Weather History Date:

Sunday, May 12, 2013

  Actual Average Record
Temperature  
Mean Temperature 22 °F -  
Max Temperature 30 °F 24 °F 43 °F (2016)
Min Temperature 14 °F 12 °F -9 °F (2011)
Degree Days  
Heating Degree Days 43    
Moisture  
Dew Point 20 °F    
Average Humidity 92    
Maximum Humidity 100    
Minimum Humidity 79    
Precipitation  
Precipitation 0.00 in - - ()
Sea Level Pressure  
Sea Level Pressure 29.58 in    
Wind  
Wind Speed 12 mph (SSE)    
Max Wind Speed 29 mph    
Max Gust Speed 33 mph    
Visibility 3 miles    
Events Fog , Snow    
Averages and records for this station are not official NWS values.
T = Trace of Precipitation, MM = Missing Value Source: NWS Daily Summary

Daily Weather History Graph

Daily Weather History Graph

Search for Another Location

Airport or City:

Trip Planner

Search our weather history database for the weather conditions in past years. The results will help you decide how hot, cold, wet, or windy it might be!

Date:

Astronomy

May. 12, 2013 Rise Set
Actual Time 2:55 AM AKDT 12:55 AM AKDT
Civil Twilight Sun does not rise Sun does not rise
Nautical Twilight Sun does not rise Sun does not rise
Astronomical Twilight Sun does not rise Sun does not rise
Moon No Moon Rise No Moon Set
Length of Visible Light 24h 00m
Length of Day
22h 00m
Waxing Crescent, 7% of the Moon is Illuminated
May 12
Waxing Crescent
May 17
First Quarter
May 24
Full
May 31
Last Quarter
Jun 8
New

Hourly Weather History & Observations

Time (AKDT) Temp. Windchill Dew Point Humidity Pressure Visibility Wind Dir Wind Speed Gust Speed Precip Events Conditions
12:43 AM 28.4 °F 22.2 °F 26.6 °F 93% 29.77 in 10.0 mi SW 5.8 mph - N/A   Mostly Cloudy
12:53 AM 26.1 °F 21.9 °F 26.1 °F 100% 29.76 in 6.0 mi SSW 3.5 mph - N/A   Overcast
1:10 AM 28.4 °F 24.6 °F 26.6 °F 93% 29.75 in 10.0 mi SSW 3.5 mph - N/A   Overcast
1:53 AM 28.9 °F 23.9 °F 27.0 °F 92% 29.74 in 10.0 mi SE 4.6 mph - N/A   Overcast
2:53 AM 26.1 °F 20.5 °F 24.1 °F 92% 29.72 in 10.0 mi SE 4.6 mph - N/A   Overcast
3:23 AM 21.2 °F 10.9 °F 19.4 °F 93% 29.70 in 10.0 mi SE 9.2 mph - N/A   Mostly Cloudy
3:41 AM 21.2 °F 12.6 °F 19.4 °F 93% 29.69 in 2.5 mi SE 6.9 mph - N/A   Mostly Cloudy
3:43 AM 21.2 °F 12.6 °F 19.4 °F 93% 29.69 in 0.8 mi SE 6.9 mph - N/A   Mist
3:53 AM 21.9 °F 17.2 °F 21.0 °F 96% 29.69 in 0.2 mi SE 3.5 mph - N/A Fog Light Freezing Fog
4:01 AM 21.2 °F 13.6 °F 19.4 °F 93% 29.68 in 0.2 mi SE 5.8 mph - N/A Fog Light Freezing Fog
4:31 AM 19.4 °F 11.5 °F 19.4 °F 100% 29.67 in 0.5 mi East 5.8 mph - N/A Fog Light Freezing Fog
4:40 AM 19.4 °F 10.4 °F 19.4 °F 100% 29.67 in 1.0 mi East 6.9 mph - N/A   Mostly Cloudy
4:53 AM 19.9 °F 10.1 °F 19.0 °F 96% 29.66 in 2.0 mi East 8.1 mph - N/A   Mostly Cloudy
4:55 AM 19.4 °F 9.5 °F 19.4 °F 100% 29.66 in 4.0 mi ESE 8.1 mph - N/A   Mostly Cloudy
5:53 AM 17.1 °F 6.6 °F 15.1 °F 92% 29.64 in 10.0 mi SE 8.1 mph - N/A   Scattered Clouds
6:53 AM 17.1 °F 6.6 °F 15.1 °F 92% 29.62 in 10.0 mi ESE 8.1 mph - N/A   Scattered Clouds
7:53 AM 19.0 °F 8.2 °F 16.0 °F 88% 29.60 in 10.0 mi East 9.2 mph - N/A   Scattered Clouds
8:53 AM 21.9 °F 9.2 °F 19.9 °F 92% 29.58 in 10.0 mi ESE 13.8 mph - N/A   Mostly Cloudy
9:17 AM 24.8 °F 12.4 °F 24.8 °F 100% 29.57 in 0.8 mi ESE 15.0 mph - N/A   Overcast
9:24 AM 26.6 °F 15.2 °F 24.8 °F 93% 29.57 in 0.2 mi ESE 13.8 mph - N/A Fog Light Freezing Fog
9:53 AM 28.0 °F 17.5 °F 27.0 °F 96% 29.57 in 0.2 mi East 12.7 mph - N/A Fog Light Freezing Fog
10:05 AM 28.4 °F 18.0 °F 26.6 °F 93% 29.56 in 0.5 mi East 12.7 mph - N/A Fog Light Freezing Fog
10:13 AM 28.4 °F 18.0 °F 28.4 °F 100% 29.55 in 2.5 mi East 12.7 mph - N/A   Overcast
10:20 AM 28.4 °F 17.5 °F 28.4 °F 100% 29.55 in 10.0 mi East 13.8 mph - N/A   Overcast
10:53 AM 30.0 °F 18.7 °F 28.0 °F 92% 29.55 in 10.0 mi East 16.1 mph - N/A   Overcast
11:53 AM 30.0 °F 17.9 °F 28.0 °F 92% 29.54 in 10.0 mi East 18.4 mph - N/A   Overcast
12:53 PM 30.0 °F 19.1 °F 28.0 °F 92% 29.53 in 10.0 mi East 15.0 mph - N/A   Overcast
1:53 PM 30.0 °F 19.1 °F 28.0 °F 92% 29.53 in 10.0 mi East 15.0 mph - N/A   Overcast
2:53 PM 30.0 °F 19.5 °F 28.0 °F 92% 29.53 in 2.5 mi East 13.8 mph - 0.00 in Snow Light Snow
3:07 PM 30.2 °F 18.5 °F 28.4 °F 93% 29.52 in 3.0 mi East 17.3 mph - 0.00 in Snow Light Snow
3:29 PM 30.2 °F 19.8 °F 28.4 °F 93% 29.52 in 2.0 mi East 13.8 mph - 0.00 in Snow Light Snow
3:32 PM 30.2 °F 19.3 °F 28.4 °F 93% 29.52 in 1.8 mi East 15.0 mph - 0.00 in Snow Light Snow
3:53 PM 30.0 °F 19.5 °F 28.0 °F 92% 29.53 in 0.8 mi East 13.8 mph - 0.00 in Snow Light Snow
4:26 PM 30.2 °F 20.8 °F 28.4 °F 93% 29.52 in 0.8 mi ESE 11.5 mph - 0.00 in Snow Light Snow
4:53 PM 30.0 °F 20.0 °F 28.0 °F 92% 29.51 in 0.8 mi ESE 12.7 mph - 0.00 in Snow Light Snow
5:03 PM 26.6 °F 14.3 °F 24.8 °F 93% 29.51 in 1.0 mi SSW 16.1 mph 21.9 mph 0.00 in Snow Light Snow
5:11 PM 24.8 °F 10.7 °F 23.0 °F 93% 29.51 in 1.2 mi SW 19.6 mph - 0.00 in Snow Light Snow
5:28 PM 24.8 °F 10.7 °F 21.2 °F 86% 29.51 in 1.5 mi SW 19.6 mph - 0.00 in Snow Light Snow
5:53 PM 21.0 °F 4.6 °F 18.0 °F 88% 29.52 in 1.0 mi SW 23.0 mph - 0.00 in Snow Light Snow
6:09 PM 19.4 °F 2.5 °F 17.6 °F 93% 29.51 in 0.8 mi SW 23.0 mph - 0.00 in Snow Light Snow
6:44 PM 19.4 °F 1.8 °F 15.8 °F 86% 29.52 in 0.5 mi SW 25.3 mph - 0.00 in Fog , Snow Light Snow
6:53 PM 19.0 °F 2.0 °F 16.0 °F 88% 29.52 in 0.5 mi SW 23.0 mph - 0.00 in Fog , Snow Light Snow
7:53 PM 17.1 °F -1.4 °F 14.0 °F 88% 29.53 in 0.5 mi SW 25.3 mph - 0.00 in Fog , Snow Light Snow
8:01 PM 17.6 °F -1.3 °F 12.2 °F 79% 29.53 in 0.8 mi SW 27.6 mph - 0.00 in Snow Light Snow
8:24 PM 15.8 °F -3.4 °F 12.2 °F 86% 29.53 in 1.0 mi SW 26.5 mph - 0.00 in Snow Light Snow
8:46 PM 15.8 °F -3.1 °F 12.2 °F 86% 29.53 in 0.5 mi SW 25.3 mph - 0.00 in Fog , Snow Snow
8:53 PM 16.0 °F -2.1 °F 12.9 °F 88% 29.54 in 0.5 mi SW 23.0 mph - 0.00 in Fog , Snow Snow
9:21 PM 15.8 °F -3.1 °F 12.2 °F 86% 29.53 in 0.2 mi SW 25.3 mph - 0.00 in Fog , Snow Snow
9:31 PM 15.8 °F -3.1 °F 12.2 °F 86% 29.53 in 0.5 mi SW 25.3 mph - 0.00 in Fog , Snow Snow
9:45 PM 15.8 °F -2.3 °F 12.2 °F 86% 29.53 in 0.8 mi SW 23.0 mph - 0.00 in Snow Light Snow
9:53 PM 15.1 °F -4.0 °F 12.0 °F 88% 29.54 in 1.2 mi SW 25.3 mph - 0.00 in Snow Light Snow
10:01 PM 15.8 °F -2.7 °F 12.2 °F 86% 29.53 in 1.2 mi SW 24.2 mph - 0.00 in Snow Light Snow
10:27 PM 15.8 °F -3.1 °F 12.2 °F 86% 29.53 in 1.0 mi SW 25.3 mph - 0.00 in Snow Light Snow
10:34 PM 15.8 °F -3.1 °F 12.2 °F 86% 29.53 in 0.8 mi SW 25.3 mph - 0.00 in Fog , Snow Snow
10:53 PM 15.1 °F -4.4 °F 12.0 °F 88% 29.54 in 0.2 mi SW 26.5 mph - 0.00 in Fog , Snow Heavy Snow
11:01 PM 14.0 °F -5.8 °F 12.2 °F 93% 29.53 in 0.2 mi SW 26.5 mph - 0.00 in Fog , Snow Snow
11:27 PM 14.0 °F -6.5 °F 10.4 °F 86% 29.52 in 0.5 mi SW 28.8 mph 33.4 mph 0.00 in Fog , Snow Light Snow
11:53 PM 14.0 °F -5.8 °F 10.9 °F 88% 29.53 in 0.5 mi SW 26.5 mph - 0.00 in Fog , Snow Snow